RH
73 73 74 75 76 76 76 75 73 71 68 64 62 59 58 57 55 53 52 50 49 48 48 48 50 51 51 55 59 60 60 60 60 60 61 63 65 66 69 73 79 85 84 77 69 63 59 56 55 55 57 59 60 58 57 59 63 67 66 61 57 56 55
79 79 80 81 81 82 83 81 79 78 76 73 69 66 63 61 59 57 56 54 53 52 51 50 50 51 50 53 59 63 63 60 58 56 56 56 58 62 65 71 80 84 84 82 76 69 65 60 57 56 52 51 56 57 55 53 52 53 56 57 53 51 48
84 85 85 85 86 87 87 86 84 82 82 80 77 74 70 67 64 61 59 57 57 55 55 56 55 55 52 51 55 60 63 66 65 63 63 60 57 59 60 63 74 83 86 85 79 73 70 66 65 63 57 53 56 58 57 56 55 53 54 55 53 50 49
89 89 89 90 90 91 90 89 88 86 85 85 83 81 78 73 70 66 64 62 60 58 57 59 62 64 65 63 60 57 56 58 62 65 68 69 68 70 70 66 68 76 82 83 80 76 73 69 68 66 62 60 60 61 60 60 60 58 58 58 57 55 52
92 93 94 94 94 94 94 93 92 90 89 88 87 86 84 81 76 71 68 66 64 63 62 62 64 69 77 83 82 77 70 63 60 61 63 66 69 75 80 80 77 75 77 80 81 79 76 73 71 68 64 62 61 61 61 61 60 57 56 58 59 58 55
95 97 99 99 98 98 98 98 97 95 94 93 91 90 88 87 84 80 75 72 69 67 66 65 65 65 70 78 83 86 87 81 72 64 62 63 62 63 70 79 84 83 82 82 82 79 76 77 78 74 68 64 62 62 62 62 61 58 54 56 57 57 56
99 100 100 100 100 100 100 100 100 99 99 98 96 95 94 92 91 88 84 80 76 73 71 69 67 65 63 64 68 73 79 85 85 78 71 65 59 56 58 65 77 87 89 89 87 82 74 74 80 83 80 74 69 67 66 64 65 64 59 58 59 59 55
101 100 100 101 100 100 100 100 101 100 100 100 99 99 99 97 96 95 91 87 83 79 77 75 74 73 70 66 63 62 64 73 84 90 90 85 79 74 69 69 78 91 95 93 93 90 82 75 75 78 79 78 77 75 73 68 68 72 69 64 63 61 57
101 100 100 100 100 100 101 100 100 101 100 100 100 100 100 100 99 98 96 93 91 87 83 80 78 77 76 75 73 70 67 68 75 85 93 95 95 94 92 90 93 96 95 92 92 93 88 80 78 79 79 80 82 80 75 69 69 75 72 68 69 67 64
101 101 100 100 100 100 101 100 100 101 100 100 100 100 100 100 99 98 97 95 94 93 90 86 83 80 78 79 82 82 80 76 74 76 82 88 93 97 99 100 99 95 92 92 93 93 90 86 85 84 84 84 83 80 76 75 76 78 74 75 82 80 70
101 101 100 100 101 100 100 100 100 101 100 100 100 100 100 100 100 100 99 98 96 95 93 90 88 86 83 84 85 85 85 85 82 78 76 79 87 93 96 99 100 97 93 93 95 94 91 91 89 85 82 83 83 82 81 80 80 81 81 85 93 91 78
100 101 100 100 101 101 101 100 99 101 101 100 100 100 100 100 100 100 100 100 99 96 94 93 92 91 90 89 88 86 83 83 84 84 82 79 82 88 91 93 95 97 97 96 96 97 96 94 92 90 88 86 86 85 84 84 84 84 85 88 93 94 85
100 100 101 101 101 101 101 98 97 99 101 100 100 100 100 100 100 100 100 100 100 99 97 96 95 95 94 93 93 94 91 86 82 82 83 83 85 88 90 90 89 91 96 97 96 98 98 95 94 94 93 90 88 86 86 88 89 89 89 91 93 90 82
100 100 100 101 101 101 102 98 95 98 101 100 100 100 100 100 100 100 100 100 100 100 99 98 98 98 97 96 97 97 97 96 92 87 84 85 86 87 87 86 85 88 95 96 93 94 97 96 95 95 95 94 93 92 90 91 90 90 92 92 88 85 82
100 100 100 101 101 101 101 97 95 99 101 100 100 100 100 100 100 100 100 100 100 100 100 99 99 99 98 98 100 99 98 98 99 97 94 92 90 86 80 77 78 82 84 80 77 84 94 93 87 89 96 99 97 95 94 93 90 88 91 91 89 90 92
100 100 100 100 100 100 101 96 93 97 101 100 100 100 100 100 100 100 100 100 100 101 100 100 100 101 101 100 100 100 100 100 99 100 99 97 94 91 84 74 65 60 60 61 61 67 75 75 74 83 94 96 92 93 95 97 97 94 96 98 98 98 97
100 100 100 100 100 101 101 97 92 96 101 100 100 100 100 100 100 100 100 100 99 99 100 100 99 97 98 100 100 100 101 100 100 100 100 99 96 93 92 82 61 45 49 64 71 70 73 78 80 82 85 82 81 88 95 100 100 99 101 101 99 100 99
100 100 100 100 100 99 100 99 96 98 101 100 100 100 100 100 100 100 101 100 98 97 98 99 96 92 94 98 98 98 100 100 100 100 100 100 97 94 94 88 74 64 69 81 86 83 83 89 88 84 82 81 81 87 94 100 101 99 100 100 99 100 99
100 100 100 99 96 94 97 101 99 98 100 100 97 97 100 100 99 99 100 101 99 98 99 99 95 93 96 98 96 96 99 101 100 100 100 100 99 98 95 89 84 87 92 96 94 88 83 83 82 83 84 82 79 79 82 89 96 99 100 100 100 99 99
100 101 99 94 93 94 98 102 98 94 98 100 95 95 99 100 100 100 99 100 100 100 100 99 92 87 88 91 94 98 100 100 99 100 100 100 100 100 97 93 92 93 95 97 97 91 85 80 75 75 77 75 72 70 69 71 78 85 94 100 101 99 99
100 103 99 91 92 96 97 96 92 89 95 99 95 95 99 99 100 101 100 100 101 100 100 101 96 89 85 85 88 95 101 101 100 100 100 100 100 97 93 93 96 96 94 96 97 95 91 86 79 75 76 75 72 68 64 65 67 70 80 94 101 100 99
100 102 100 93 94 96 89 87 88 88 93 99 97 97 100 99 99 100 100 100 101 99 100 101 98 96 94 89 86 92 98 99 98 100 100 99 100 98 92 90 94 96 96 97 98 97 96 94 90 86 84 80 74 67 61 64 68 71 79 92 99 100 98
100 102 101 95 97 96 85 81 87 88 91 97 98 98 100 100 99 100 100 100 100 100 100 101 100 99 100 97 91 92 95 94 94 99 100 98 99 99 94 90 94 99 100 99 98 98 98 96 94 93 90 82 72 62 61 68 76 82 90 98 100 100 99
100 103 101 96 98 97 85 80 86 89 92 96 98 99 100 100 99 100 100 100 100 100 100 99 99 99 100 99 94 91 92 92 92 95 97 96 97 98 95 93 96 100 100 100 99 99 99 97 95 94 90 80 68 63 68 76 82 88 96 100 100 100 100
101 103 100 97 99 97 87 82 86 91 95 97 98 99 101 100 100 100 101 100 100 101 101 99 99 99 100 100 95 88 85 86 88 93 96 96 97 98 96 97 100 100 100 100 100 100 99 96 94 92 86 78 74 76 80 83 87 93 99 100 100 100 100
101 101 98 97 100 98 90 86 88 93 96 97 98 100 100 100 100 100 101 100 98 96 98 98 99 100 100 100 98 95 93 92 93 96 98 98 99 100 98 98 100 100 100 100 100 100 100 97 92 89 85 82 84 86 87 90 95 99 100 100 100 100 100
100 100 100 100 101 99 94 91 92 96 98 98 99 101 100 100 100 99 100 100 95 92 96 99 100 98 96 95 95 97 99 100 98 96 96 96 97 99 99 100 101 100 100 100 99 98 98 94 91 90 88 88 89 91 92 95 99 100 100 100 100 100 100
100 100 100 100 100 100 99 97 97 98 100 100 101 101 100 100 100 99 100 100 97 95 97 97 93 90 88 88 90 92 94 96 96 95 95 95 95 95 95 96 97 98 99 99 99 99 98 96 95 96 94 93 94 95 96 98 100 100 100 100 100 100 100
100 101 100 100 100 100 100 100 100 100 100 100 100 100 100 100 100 100 100 100 98 96 93 89 87 88 90 91 93 95 95 94 94 93 93 94 95 94 93 93 93 95 96 96 97 97 98 99 100 99 99 99 99 99 99 100 100 100 100 100 100 100 100
100 101 101 100 100 100 101 101 101 100 100 100 100 100 100 100 100 101 100 98 95 92 90 91 93 96 98 99 99 99 99 98 98 97 95 95 95 95 96 96 94 94 94 94 94 95 95 97 99 100 100 100 100 100 100 100 100 100 100 100 100 100 100
99 100 101 101 100 100 101 100 100 100 100 100 100 100 101 100 100 101 99 93 89 90 93 98 100 99 100 101 100 100 101 100 100 100 100 98 95 95 97 98 97 96 95 93 94 95 96 97 99 100 100 100 100 100 100 100 100 100 100 100 100 100 100
100 100 100 100 100 100 100 100 101 100 100 101 100 100 100 100 100 101 97 89 87 93 98 100 101 101 101 101 100 101 101 101 100 100 101 101 98 97 99 100 99 98 96 95 96 97 98 99 99 99 100 100 100 100 100 100 100 100 100 100 100 99 100
102 102 101 100 100 100 100 100 100 100 100 100 100 100 100 100 101 101 96 89 90 98 102 101 100 101 101 100 101 101 100 101 101 101 100 101 101 100 101 101 100 98 96 96 98 98 98 99 100 99 99 100 100 100 100 100 100 100 100 100 100 100 100
98 99 101 102 100 100 101 100 100 101 101 100 100 101 100 97 96 95 91 89 94 100 102 101 100 101 100 100 100 101 101 101 101 101 101 101 101 101 99 99 99 99 99 98 98 98 98 98 99 100 100 101 100 100 100 100 100 100 100 100 100 100 101
91 91 98 104 102 100 100 100 100 100 100 99 101 101 94 88 90 92 92 93 97 100 101 101 101 100 100 100 100 101 101 100 101 101 100 100 102 102 99 98 99 100 100 99 99 99 99 98 99 100 101 100 100 100 100 100 100 100 100 99 99 100 100
91 90 93 97 99 100 101 100 101 102 100 101 103 100 92 90 96 100 99 99 99 100 101 101 100 100 100 100 100 101 100 101 101 97 91 92 100 103 101 100 100 99 100 100 99 99 100 99 99 100 101 101 101 100 100 100 100 100 100 99 98 99 100
Wind_Speed
24 23 22 22 22 22 22 22 22 23 23 23 24 23 23 23 23 24 24 25 25 25 26 26 26 28 28 27 27 28 28 28 29 29 27 25 23 23 22 20 16 11 12 18 21 24 28 30 31 32 32 32 29 25 22 20 19 17 17 18 19 19 19
23 22 21 22 22 22 22 22 23 23 23 24 24 25 24 24 24 24 24 23 24 24 25 26 27 28 28 27 27 27 27 28 29 30 30 29 26 25 26 24 21 17 14 16 20 23 26 27 29 32 36 37 34 31 30 29 27 24 23 23 23 24 24
22 21 21 22 23 23 23 23 23 23 24 24 25 26 26 26 25 25 25 25 25 25 25 25 27 28 28 29 28 27 25 24 25 25 26 28 28 27 29 29 26 22 19 18 20 24 25 25 25 29 33 36 35 32 30 28 27 24 24 25 26 27 27
21 21 21 22 23 23 23 23 23 23 23 24 25 26 27 27 27 27 28 28 28 27 27 26 27 27 26 27 28 29 28 26 25 24 23 24 25 26 29 30 29 27 25 23 22 24 26 26 25 27 30 32 32 32 29 27 26 24 24 25 26 27 28
22 22 22 22 23 23 23 23 23 23 24 24 24 24 25 26 27 28 29 30 30 30 29 28 28 28 26 25 25 25 26 26 27 26 24 24 24 25 26 27 28 30 30 28 25 25 26 26 26 27 30 31 30 31 30 28 27 26 25 26 27 28 29
24 23 22 23 23 23 24 23 23 24 24 24 24 25 26 26 27 28 28 29 30 30 31 31 31 31 30 28 27 26 24 23 25 26 26 27 27 28 28 27 28 30 31 31 29 27 26 25 25 26 28 30 29 29 28 26 26 26 27 27 29 29 30
24 23 22 23 23 23 23 24 24 24 24 25 26 27 28 28 28 28 29 29 30 30 31 32 33 34 34 33 32 30 28 26 24 25 27 29 31 33 33 32 32 31 30 28 28 28 27 25 24 24 24 26 26 26 27 26 24 25 27 28 29 31 32
23 23 23 23 23 24 24 24 25 25 26 27 28 28 28 28 28 28 29 29 30 30 31 31 32 33 34 35 35 34 33 31 28 26 27 28 29 30 32 32 32 30 26 24 23 23 25 25 24 25 25 25 24 23 24 26 25 24 25 27 29 31 33
23 23 24 24 24 24 25 26 27 27 26 27 27 28 28 28 28 28 28 29 30 31 32 33 34 34 35 35 36 35 35 34 33 31 30 29 27 25 25 26 27 24 21 19 18 19 22 23 22 23 23 22 22 23 25 28 26 25 27 28 29 31 32
25 24 25 26 26 26 26 27 28 27 26 26 26 27 28 29 30 31 30 30 30 31 32 33 35 36 37 37 36 35 34 34 35 36 36 34 30 27 25 23 23 22 20 18 16 16 19 17 17 19 20 20 22 26 28 27 24 24 28 26 22 26 32
27 26 26 26 27 27 28 29 29 28 27 26 26 26 27 28 30 32 32 32 31 32 32 33 35 36 37 37 37 36 36 35 35 37 38 38 36 33 31 28 24 22 21 19 16 16 17 15 15 20 22 23 25 26 27 27 26 25 25 20 14 15 24
27 27 26 25 26 26 28 29 28 27 27 27 26 26 26 27 28 29 32 33 33 34 34 33 34 35 35 37 37 37 37 37 36 36 37 38 38 37 36 34 30 26 23 21 18 17 18 18 18 19 22 24 25 25 26 27 27 26 25 22 17 15 20
27 27 25 25 25 27 28 29 29 27 27 27 27 26 26 27 27 28 30 32 33 35 35 35 34 33 34 36 36 35 37 38 38 38 37 37 37 37 37 37 36 33 29 27 24 21 21 23 22 20 21 22 22 24 26 25 25 27 26 23 21 23 28
27 26 26 25 25 26 28 30 29 28 27 27 28 28 27 27 27 27 29 31 33 35 35 35 34 33 35 35 34 34 35 36 37 38 38 37 37 38 38 37 37 36 33 32 31 28 27 29 29 26 24 24 20 18 20 21 23 25 25 25 27 29 29
26 26 26 25 25 26 29 30 29 27 28 28 28 27 27 27 26 26 27 28 30 33 35 35 34 34 36 35 34 34 35 35 36 36 36 36 36 37 37 38 39 39 37 35 35 33 32 34 35 32 29 27 23 20 19 18 18 19 20 23 25 23 22
25 26 27 27 26 26 29 30 29 27 28 28 28 28 28 27 25 24 25 25 26 28 31 32 32 33 35 36 35 35 34 32 33 34 34 35 35 35 35 37 40 43 42 40 38 36 34 34 35 33 31 28 26 26 25 21 18 17 16 17 16 14 17
25 27 27 27 26 26 28 30 29 28 28 29 29 28 27 26 26 25 24 24 25 25 27 29 29 30 32 33 35 36 34 31 30 31 33 33 33 32 32 33 37 40 42 40 38 36 35 33 33 31 29 27 25 24 24 21 19 17 16 15 11 8 13
27 27 27 27 27 26 28 29 28 27 28 28 27 25 22 18 17 21 22 23 24 24 25 27 27 27 28 30 32 34 32 30 29 30 31 32 31 30 30 31 32 33 35 35 34 34 33 31 31 30 27 25 23 22 22 21 20 18 17 16 12 9 12
26 26 27 27 28 27 27 27 26 26 26 26 25 25 25 21 13 12 16 19 22 24 24 25 24 24 25 27 30 32 30 28 29 31 31 30 28 27 29 32 31 30 30 31 31 32 32 30 29 29 27 25 23 22 21 22 22 21 19 17 15 14 12
25 26 28 27 27 26 23 21 22 24 25 24 23 25 25 23 18 14 13 13 15 18 22 24 22 20 21 23 26 28 28 26 27 30 31 29 27 26 27 28 29 29 29 30 30 30 31 31 29 28 26 25 24 23 23 23 24 24 23 20 18 18 15
26 26 27 27 25 22 18 17 19 24 24 21 22 24 24 22 20 19 17 16 15 16 18 20 22 20 20 20 22 24 25 26 26 27 29 30 31 31 28 25 25 28 29 29 28 28 28 29 29 27 26 25 25 24 24 24 25 26 27 26 24 21 19
26 24 25 25 23 18 16 17 19 22 22 20 21 23 23 22 21 19 19 19 17 17 18 17 17 19 19 20 21 21 20 22 24 25 28 30 31 31 30 25 24 26 27 26 26 26 25 26 27 27 27 26 25 25 25 25 25 25 27 28 28 27 23
24 22 22 23 20 16 16 18 19 21 21 20 21 22 22 22 21 19 19 19 19 18 18 18 17 16 17 18 18 17 13 14 16 19 24 28 28 27 27 25 24 24 24 24 24 24 24 25 27 28 28 27 26 25 25 25 24 25 25 26 27 28 28
22 20 19 20 18 15 16 19 19 20 19 19 21 22 22 22 22 20 18 18 19 20 19 19 19 18 17 15 14 12 11 11 12 13 16 21 25 25 23 23 25 25 23 23 23 23 23 26 27 28 28 29 27 26 24 23 23 23 24 24 24 25 27
22 20 19 18 16 15 17 19 20 20 19 18 20 21 21 22 22 20 18 18 20 21 19 18 18 18 17 14 12 12 12 12 12 12 13 15 20 24 24 23 23 23 22 22 22 22 24 26 27 28 28 28 26 24 23 22 22 22 22 22 23 24 25
20 19 20 17 13 14 18 19 20 19 18 19 22 22 22 23 22 20 19 18 19 20 20 19 18 16 14 11 10 10 10 9 9 8 8 9 11 18 24 25 24 23 22 21 21 22 23 26 28 28 28 26 25 24 24 23 22 22 22 22 23 22 22
19 20 19 14 11 12 16 18 19 18 19 22 23 23 24 24 23 22 21 18 19 21 22 18 14 11 9 8 6 6 4 3 3 4 5 5 4 4 10 15 18 21 21 22 22 23 25 27 28 26 25 25 25 25 25 24 23 22 22 23 23 21 19
25 23 15 10 11 13 13 15 16 18 21 23 23 23 24 23 22 23 22 18 17 19 16 11 8 8 8 8 7 6 6 6 5 6 6 6 6 5 3 4 7 10 12 14 15 16 19 22 24 25 25 25 25 26 26 25 24 24 24 24 23 19 17
22 17 11 11 12 12 13 14 15 18 21 22 21 21 21 21 22 23 18 14 14 13 9 6 8 9 10 11 11 11 12 12 11 10 10 10 10 9 8 6 5 5 6 8 9 11 12 14 15 19 22 22 22 24 26 26 26 25 24 24 22 19 17
14 12 14 14 13 12 12 14 17 19 20 20 19 18 18 19 20 16 11 10 9 7 6 9 11 12 13 13 13 13 14 14 14 13 13 12 12 12 12 12 11 10 10 10 10 11 13 13 13 13 15 18 20 22 24 27 27 25 24 23 21 18 17
11 13 15 15 14 13 13 14 16 18 18 18 18 17 17 17 14 10 8 8 6 6 10 12 11 11 12 12 12 13 13 13 13 13 14 13 13 12 13 14 13 13 13 12 11 11 12 13 14 14 14 16 19 22 23 24 25 24 23 23 22 19 18
13 15 15 14 14 14 15 15 16 17 16 16 17 17 15 13 11 11 7 4 6 11 13 12 11 11 11 11 12 12 12 12 13 13 13 13 13 13 13 14 14 13 13 12 11 11 11 12 13 14 15 16 18 22 23 23 22 23 23 22 21 20 20
13 15 16 15 15 15 16 17 16 15 15 15 16 16 14 9 9 10 8 6 10 13 12 11 11 11 11 11 11 12 12 12 13 13 13 13 13 13 13 13 13 13 13 12 11 11 11 12 13 14 15 16 18 20 23 23 23 24 22 20 18 18 18
16 16 16 16 17 17 17 17 15 14 14 15 15 15 11 4 4 8 10 12 14 14 13 12 11 11 12 12 12 13 13 14 14 14 13 13 13 13 13 13 13 13 14 13 12 12 12 12 12 13 14 15 16 19 22 23 23 23 21 20 19 18 18
20 19 18 17 17 17 18 17 14 13 14 15 16 14 9 5 7 11 14 16 17 15 14 12 11 11 11 12 12 13 13 14 14 14 13 13 14 14 14 14 13 13 13 13 13 13 13 12 13 13 13 14 15 18 21 21 22 24 23 22 22 20 19
19 19 18 17 16 17 18 17 15 13 14 16 17 14 12 13 15 15 15 15 16 16 14 14 13 12 12 12 12 13 13 13 13 14 13 11 12 13 13 14 14 13 13 12 12 12 12 13 13 13 12 14 14 17 22 22 22 24 25 24 24 23 21
Wind_Direction
297 295 292 289 287 286 284 283 282 280 277 275 272 270 269 268 267 265 264 265 265 266 268 271 273 274 275 275 274 271 271 272 274 278 279 279 280 281 280 277 273 271 279 280 277 276 274 272 274 275 275 280 281 277 272 273 273 269 264 264 268 271 273
297 293 290 288 286 285 284 282 281 278 276 274 272 270 269 267 266 265 265 263 262 263 265 266 268 270 271 272 272 271 270 269 269 271 274 275 276 278 278 278 277 273 275 279 277 274 271 268 268 269 268 272 276 276 274 275 275 272 267 268 272 275 276
295 292 290 287 286 284 283 282 280 278 275 272 271 269 267 266 264 263 263 263 262 262 263 264 266 268 268 268 269 269 271 271 268 265 266 267 269 271 272 271 271 270 272 275 275 271 269 266 263 262 263 266 269 272 274 274 273 271 268 266 269 272 274
294 291 290 287 286 284 282 281 280 278 276 273 270 268 266 264 263 261 260 260 260 261 260 262 264 265 267 266 265 265 266 268 268 266 261 261 263 265 265 264 262 263 265 269 271 268 264 263 261 260 261 263 265 266 265 265 267 269 269 267 266 267 271
294 291 288 286 285 284 282 281 279 277 276 274 271 269 266 264 262 260 259 258 258 258 257 258 259 261 263 265 265 266 264 262 262 263 261 259 258 259 261 260 257 257 258 258 261 262 261 261 260 261 261 261 261 261 260 259 260 262 265 267 266 266 269
294 291 287 285 285 284 283 281 279 276 274 272 270 268 266 265 263 261 260 258 257 256 255 255 256 257 259 260 263 264 264 262 260 258 258 257 256 257 260 261 257 254 252 250 252 255 257 258 257 257 258 257 256 256 255 255 257 259 260 262 263 264 265
294 290 288 286 285 283 281 280 278 275 273 271 270 269 266 264 263 262 260 259 258 256 256 255 254 255 256 257 258 259 260 260 258 256 256 256 255 254 254 256 257 256 253 249 249 250 251 252 252 253 255 257 255 253 253 253 254 256 256 256 258 260 263
294 292 290 287 285 283 281 281 280 277 275 273 271 269 266 264 261 260 259 258 258 256 255 255 254 254 254 254 255 255 255 254 254 254 253 252 252 251 248 248 250 253 255 254 253 252 248 246 248 251 254 257 256 252 253 253 251 252 255 255 257 260 263
294 292 290 289 288 286 284 283 284 282 278 275 273 270 267 265 261 258 256 256 256 255 254 254 254 253 253 253 253 252 252 250 248 248 249 251 253 253 251 248 246 248 254 259 262 260 250 240 237 241 243 245 246 246 250 253 251 250 253 255 258 261 263
297 294 293 293 293 291 288 286 287 286 280 274 271 270 268 266 262 259 255 253 253 253 252 252 252 252 252 252 251 250 249 248 246 244 245 248 250 252 253 253 250 248 253 258 263 268 263 246 235 239 241 241 244 247 250 251 246 245 250 251 254 261 264
299 298 297 296 296 295 293 291 291 289 284 279 276 273 269 265 261 258 255 251 249 250 251 251 251 251 251 250 249 248 248 247 246 245 245 245 246 247 248 249 249 248 251 255 261 269 272 264 251 247 244 243 246 245 246 246 242 240 244 242 240 256 264
301 301 301 299 297 296 294 294 294 290 285 284 282 279 274 267 261 257 254 251 248 249 250 250 250 250 250 249 247 246 247 247 246 245 245 245 245 246 246 246 247 247 249 253 257 262 265 265 264 255 245 241 243 244 244 243 239 235 236 235 230 235 253
301 301 302 301 298 297 296 296 299 297 291 288 287 284 282 276 267 259 254 251 249 248 249 250 250 249 249 249 246 244 244 245 246 247 247 246 246 246 246 246 246 247 249 251 255 257 259 262 266 264 256 251 249 246 242 237 235 233 232 230 229 234 246
302 302 303 302 300 299 297 299 304 303 296 292 291 289 286 282 275 266 259 254 251 250 250 250 249 249 251 251 246 243 242 241 242 244 246 247 247 246 246 246 246 248 249 251 253 256 259 262 264 264 265 264 261 252 242 234 232 233 230 231 235 240 246
302 302 303 303 302 299 299 303 308 306 299 296 296 295 292 287 280 272 266 260 256 253 252 252 251 250 253 254 249 244 241 239 239 240 241 244 246 245 245 244 244 246 248 250 252 254 256 259 262 263 263 263 263 260 256 249 242 240 239 240 242 244 245
301 302 303 305 304 300 301 307 313 313 308 304 303 301 298 291 282 274 269 265 261 258 255 255 253 252 255 257 254 250 242 235 236 236 237 240 242 243 244 243 243 243 245 249 253 254 254 256 261 263 261 262 263 261 261 260 254 249 245 240 239 240 242
301 302 304 305 305 303 302 307 317 321 316 311 310 309 304 290 275 266 264 265 265 263 260 258 256 256 257 258 259 258 248 235 231 231 232 235 237 238 241 243 243 242 243 247 252 253 253 255 258 260 259 260 261 256 253 248 241 239 234 228 225 227 236
300 302 303 303 305 307 305 306 317 324 318 316 323 334 337 321 285 262 259 263 266 264 262 260 259 260 260 260 264 266 255 237 228 227 227 229 231 233 237 240 242 242 244 248 250 251 251 253 255 256 255 254 252 248 244 238 233 234 231 226 225 224 232
299 299 303 305 307 311 309 307 316 323 321 324 337 349 357 360 342 291 273 271 270 267 264 262 262 262 262 263 268 270 260 240 227 225 225 224 223 226 231 236 239 239 241 245 248 249 250 251 252 252 251 250 248 245 243 240 240 240 235 230 232 229 226
298 299 304 309 311 313 313 312 319 326 327 334 345 350 353 358 357 341 321 307 298 286 272 262 259 264 268 269 271 271 262 245 231 226 224 223 221 223 229 232 233 235 238 242 245 247 248 251 252 250 247 248 248 246 244 244 244 243 238 233 233 230 225
301 302 306 311 313 313 317 322 327 330 332 338 346 349 349 351 352 349 344 338 332 321 300 274 260 263 275 281 281 277 267 252 240 230 225 224 224 227 230 231 231 233 236 240 242 245 247 250 252 251 248 247 247 247 246 245 245 245 242 237 232 230 229
302 302 305 311 312 313 323 332 332 333 335 338 343 346 347 347 347 348 347 342 335 330 326 310 283 273 280 286 287 286 275 260 250 239 229 227 228 229 230 231 233 234 233 235 239 241 243 246 248 249 248 247 247 248 248 248 249 249 247 243 238 235 233
301 301 304 309 307 311 328 334 333 334 334 336 340 342 343 344 345 345 346 342 334 327 328 329 322 310 302 295 287 285 281 274 269 256 240 233 230 231 231 231 231 232 231 233 237 239 240 242 244 244 245 247 249 250 251 253 254 253 249 245 242 240 238
300 300 303 305 302 310 329 333 331 332 332 332 336 338 339 341 341 341 342 339 334 329 324 323 325 323 319 311 299 292 290 289 289 281 262 244 233 228 230 229 227 228 229 232 235 237 239 241 242 241 243 246 250 254 257 258 259 257 251 246 245 244 242
299 301 302 300 300 316 331 332 330 331 330 331 334 335 336 336 336 336 338 336 332 328 323 319 319 319 318 315 312 307 304 300 298 293 281 262 240 227 224 225 226 227 227 227 230 233 237 241 243 243 245 249 253 255 257 256 254 250 245 242 240 239 235
297 300 299 295 301 324 333 332 331 330 330 332 332 332 333 333 332 332 332 332 332 328 323 321 322 325 324 320 315 312 307 303 303 297 289 283 253 226 218 219 223 227 228 228 230 233 237 242 246 246 248 251 251 250 249 247 243 238 233 229 226 222 220
293 292 291 295 316 333 333 331 330 330 331 331 331 330 330 329 330 331 328 329 331 328 323 321 324 330 333 332 326 323 323 327 332 324 320 329 323 241 219 217 220 223 227 230 232 234 238 243 246 248 248 247 243 242 242 239 233 228 224 220 215 210 211
287 287 291 315 338 339 334 330 330 330 329 327 326 325 324 325 327 325 321 323 328 325 321 322 330 334 341 348 352 356 8 25 29 17 8 4 360 350 322 264 239 233 233 236 238 240 243 245 244 241 238 237 235 233 234 232 227 223 219 212 204 200 203
289 299 327 352 348 341 335 330 327 326 325 323 322 322 322 323 320 315 314 326 332 328 332 358 7 5 11 17 18 19 20 20 20 18 17 15 10 5 2 353 336 316 296 280 274 270 266 262 253 240 232 230 228 227 226 224 220 216 211 204 198 199 202
315 338 354 353 347 342 333 325 323 325 325 324 325 325 325 321 317 316 330 344 337 335 15 34 31 30 32 31 28 25 23 21 20 18 15 13 14 15 14 11 6 356 341 323 306 291 282 278 274 260 241 232 228 225 222 217 214 209 202 196 195 198 202
345 353 352 348 345 341 334 328 326 328 330 330 331 333 330 329 338 1 13 357 356 39 47 42 39 34 29 29 30 26 21 18 18 17 11 8 9 13 14 10 4 356 347 337 325 311 297 285 277 271 259 242 231 224 216 210 206 202 199 197 198 198 199
357 355 351 348 346 344 342 339 336 335 336 337 340 340 336 340 6 23 17 19 65 64 50 42 42 37 29 28 28 21 16 16 15 13 9 5 1 1 3 2 357 350 345 342 335 324 314 303 287 275 268 255 237 222 210 202 198 196 198 199 199 199 198
357 354 351 350 350 349 348 345 343 344 346 346 348 349 347 354 24 31 34 65 71 57 43 40 41 38 35 32 28 22 17 15 11 7 6 4 357 353 353 353 351 349 349 350 346 334 320 312 301 286 277 268 248 224 208 199 196 196 196 194 193 194 195
351 355 356 353 351 351 352 352 352 355 358 358 360 2 359 4 62 55 54 62 60 49 38 32 27 27 29 28 26 22 18 14 10 6 2 359 355 353 353 353 352 353 353 350 345 337 328 320 311 299 290 279 257 229 212 203 197 192 190 190 190 189 188
346 352 356 354 351 351 354 357 1 5 10 13 13 12 16 42 58 49 44 47 46 39 33 29 22 16 16 16 16 16 15 12 9 3 358 355 354 353 354 355 353 350 345 341 338 336 332 327 320 310 300 291 267 232 212 204 198 192 189 190 190 186 182
345 350 355 360 1 357 355 1 9 14 19 24 25 28 41 51 47 39 34 32 30 26 26 28 24 15 10 8 7 8 10 9 5 2 359 356 354 354 355 354 351 346 339 334 334 335 332 329 327 320 312 306 284 238 213 205 201 196 192 191 189 185 179